{"data":{"norad_id":63387,"epoch":"2026-09-20T06:40:40.139904Z","epoch_age_seconds":177982,"freshness":"STALE","line1":"1 63387U 25063AA  26263.27824236  .00017922  00000+0  54051-3 0  9994","line2":"2 63387  53.1602 222.8103 0001360  91.6139 268.5019 15.34387068 84584","mean_motion":15.34387068,"eccentricity":0.000136,"inclination_deg":53.1602,"raan_deg":222.8103,"arg_perigee_deg":91.6139,"mean_anomaly_deg":268.5019,"bstar":0.00054051,"rev_number":8458,"period_min":93.848549041603,"perigee_km":461.81131760627,"apogee_km":463.67203660644,"semimajor_km":6840.8786771064,"source":"CELESTRAK","updated_at":"2026-09-21T09:00:34.977040Z"}}